Theta_e
323 322 322 322 323 322 321 322 322 321 322 322 323 323 323 322 322 320 321 321 320 319 322 321 318 319 318 320 316 317 316 316 316 320 324 324 323 323 323 323 324 323 322
322 322 322 323 322 321 321 322 322 322 321 323 325 324 324 324 321 320 321 323 321 321 320 321 319 322 319 319 317 316 316 318 318 317 320 320 319 319 319 318 320 321 319
323 322 321 321 321 321 321 321 321 320 321 322 324 324 324 323 322 322 323 323 323 323 321 321 322 322 321 321 317 316 318 321 321 319 317 319 318 318 317 317 317 318 319
323 322 321 321 321 321 321 320 320 321 320 322 322 324 323 321 322 322 323 322 324 324 324 324 323 323 323 321 321 320 320 320 319 319 317 316 318 319 319 316 314 314 311
323 322 321 321 322 322 322 320 321 323 323 325 323 321 320 319 318 320 322 323 324 323 324 324 324 323 321 321 323 321 321 319 318 317 316 316 316 315 314 314 310 310 308
323 322 321 322 323 322 322 321 322 324 325 324 320 319 316 317 301 305 316 324 324 322 321 321 321 319 316 313 315 316 320 319 318 317 317 314 315 314 313 312 310 309 305
323 324 323 323 323 322 322 321 322 324 322 318 317 317 314 313 299 301 309 322 319 319 323 323 323 321 320 319 311 311 311 311 316 320 316 316 314 314 314 312 311 309 306
324 324 323 323 323 322 321 319 318 317 317 316 315 314 314 311 300 302 309 320 319 321 323 323 321 321 319 319 320 319 318 319 319 321 320 318 317 317 316 315 310 306 306
324 324 324 323 322 322 319 317 317 317 316 314 314 313 314 313 299 302 315 320 323 322 323 323 322 320 304 306 318 314 313 311 307 306 306 304 302 304 309 312 308 307 303
324 324 324 323 323 321 319 317 317 318 318 316 313 313 310 315 300 302 315 323 320 319 319 318 309 314 301 305 318 315 312 313 314 313 311 307 309 306 306 314 311 307 304
324 324 323 323 322 321 319 318 317 318 319 316 313 312 313 313 310 301 308 322 320 319 318 317 313 300 300 301 309 317 313 315 311 315 315 314 314 314 313 311 310 309 304
324 323 322 321 324 322 319 317 318 317 316 315 314 313 313 316 304 301 302 307 309 319 318 317 307 297 299 300 307 300 301 310 317 315 314 313 313 314 311 309 309 309 309
322 321 321 322 323 322 319 317 316 318 319 318 315 316 315 316 316 300 299 299 305 316 318 305 297 297 299 301 299 300 305 317 316 315 314 312 313 312 314 310 309 309 308
321 321 322 322 320 321 321 319 317 315 316 319 316 316 313 315 317 316 312 310 304 308 305 307 306 307 306 308 307 311 317 316 315 314 313 310 311 312 312 312 310 309 308
321 322 323 321 321 319 320 317 319 318 317 318 318 319 317 316 317 311 311 315 313 309 311 315 317 316 315 316 318 319 318 316 314 312 313 313 312 313 312 310 308 306 306
321 322 323 322 320 319 316 310 297 302 305 305 306 312 317 307 298 299 298 296 296 300 314 315 315 316 316 317 318 318 316 312 315 315 314 314 314 313 312 309 307 307 306
322 322 322 320 321 317 315 315 313 306 297 297 297 300 304 302 296 296 295 294 295 302 312 315 316 317 317 318 318 318 318 315 315 315 315 314 314 313 310 311 309 307 305
322 309 323 323 322 317 316 316 316 312 312 309 298 300 296 295 294 294 293 298 308 307 312 314 316 316 317 317 318 319 319 316 317 316 316 316 315 315 311 312 311 309 306
322 321 323 322 322 316 315 313 313 312 315 312 306 301 294 292 292 292 295 314 313 313 312 313 315 317 318 318 318 319 318 317 317 316 315 314 314 314 313 313 313 299 302
321 311 315 322 318 316 312 311 310 310 314 314 314 312 304 305 309 309 309 313 314 313 314 315 314 315 316 318 318 318 317 312 314 315 316 316 316 316 315 314 313 312 308
321 316 308 321 320 319 316 313 312 310 311 313 316 310 297 315 315 314 314 313 316 316 315 316 316 314 314 316 316 316 316 316 316 316 316 315 315 315 315 315 314 313 313
321 319 316 321 321 320 319 317 314 312 312 312 312 308 290 313 316 316 316 316 318 319 319 318 318 318 318 316 316 315 315 314 313 314 315 316 316 316 316 315 314 312 310
321 320 318 319 320 310 312 318 317 315 314 313 312 310 304 312 316 317 317 318 318 319 320 319 319 319 319 320 320 318 316 316 317 316 314 315 315 315 315 314 314 312 310
320 320 318 318 316 315 317 318 318 307 315 315 313 312 310 312 317 318 318 319 319 319 320 320 321 321 320 320 320 320 321 321 320 319 316 315 315 311 314 315 314 313 312
321 320 318 316 315 313 313 315 316 317 317 317 316 314 312 313 314 318 318 319 319 319 319 321 321 321 320 320 320 318 312 298 312 309 319 318 317 315 315 314 314 313 310
317 321 321 319 317 315 313 314 313 314 315 317 318 316 315 313 314 315 318 319 319 319 320 320 321 321 321 321 319 312 298 295 300 295 313 314 314 315 315 315 313 313 311
Wind_Speed
9 7 8 6 6 6 6 5 6 5 5 5 4 4 3 3 3 4 5 4 4 4 3 4 4 4 4 3 4 3 3 4 6 4 3 6 6 9 9 9 10 12 14
7 7 7 6 6 6 6 6 6 6 4 4 4 3 3 3 3 4 4 4 5 5 4 4 4 3 5 4 3 5 4 4 9 11 4 4 6 10 10 11 10 10 13
7 7 6 6 6 6 6 6 6 6 4 4 4 4 3 3 3 2 3 5 5 4 4 4 5 5 5 4 4 5 5 6 7 8 8 6 6 11 11 11 12 13 9
7 7 7 6 6 6 6 6 6 5 5 5 4 5 4 2 2 1 1 1 3 2 2 3 4 5 7 9 8 9 8 9 9 9 10 9 8 8 10 12 11 7 8
8 7 7 6 6 6 6 6 6 5 5 5 6 5 4 3 3 3 1 3 3 4 3 4 4 5 7 7 9 10 11 9 9 10 10 9 8 9 11 8 11 9 7
7 6 6 6 6 6 6 6 5 5 6 6 5 5 4 3 5 4 1 3 4 5 4 4 5 8 8 11 12 8 10 13 11 9 8 11 10 10 10 10 11 10 5
7 7 7 6 6 5 5 5 6 6 7 6 5 5 4 4 8 7 3 4 5 4 5 6 5 4 8 8 10 12 10 9 9 13 15 13 13 14 13 11 11 6 3
6 8 7 6 6 5 6 5 5 5 6 5 5 5 4 3 8 3 8 5 5 4 4 5 6 6 7 9 9 9 8 8 10 9 12 13 14 12 12 10 9 8 8
8 8 8 7 7 6 6 6 4 5 5 4 4 5 4 3 8 3 8 5 5 5 4 5 6 7 9 13 12 13 12 9 13 15 16 17 16 15 13 12 8 11 4
7 9 7 7 7 6 6 6 3 4 5 4 5 4 4 4 7 4 7 4 5 4 4 5 9 9 12 12 13 14 13 11 14 14 13 14 14 12 9 6 10 9 5
6 7 7 7 7 7 6 3 5 5 6 5 5 4 4 3 3 5 8 4 4 4 3 3 3 11 12 12 12 11 13 12 14 13 12 10 9 8 4 4 4 7 5
8 8 7 7 6 5 7 4 5 6 6 5 5 4 2 2 3 4 7 6 4 5 4 4 5 11 12 14 11 17 16 14 9 9 9 8 7 5 4 5 6 5 2
8 7 7 6 6 6 6 6 5 5 6 5 5 3 3 1 1 1 7 9 8 5 4 8 11 13 14 13 17 17 12 10 10 9 8 6 5 4 5 5 3 2 4
9 8 7 7 6 5 4 4 5 4 5 6 5 4 3 2 2 3 4 5 8 7 10 8 6 8 9 11 10 5 6 6 8 9 7 4 4 4 3 3 3 3 2
9 8 7 5 6 5 4 3 4 3 5 6 6 6 6 4 3 5 8 5 4 7 8 4 6 6 7 7 6 5 6 6 7 5 7 6 4 3 3 2 3 3 3
9 7 7 7 5 4 4 3 8 3 7 6 8 6 4 6 10 9 10 12 14 11 4 4 4 5 6 7 6 6 3 5 5 6 6 6 5 4 4 2 2 3 4
11 9 6 7 6 6 4 5 4 2 7 3 6 10 11 9 12 12 12 15 14 8 3 4 5 5 4 4 5 6 5 4 5 6 6 6 5 4 4 4 3 3 3
10 13 9 8 7 5 5 5 4 4 4 3 5 3 7 11 10 12 13 11 3 1 3 6 6 5 5 6 5 5 5 5 6 7 7 7 6 6 4 4 4 5 4
8 8 7 7 7 7 5 4 4 4 3 4 3 4 7 10 11 8 10 5 7 5 4 5 6 8 9 7 7 7 7 8 7 6 5 6 6 5 5 6 6 8 7
8 13 10 7 5 6 5 5 4 4 4 4 4 4 5 4 4 5 6 4 5 4 4 5 5 6 7 9 8 7 7 6 6 6 7 7 7 7 8 7 7 7 7
6 6 8 7 7 7 7 7 6 5 5 5 5 6 11 9 9 9 8 7 6 7 7 7 6 6 6 6 6 6 6 6 6 6 5 5 5 6 7 8 8 8 8
7 9 7 8 7 7 7 7 6 7 6 6 4 4 8 3 6 7 9 9 9 8 7 7 7 7 8 9 9 9 9 8 7 7 8 8 8 9 9 9 9 8 9
6 8 10 8 8 8 5 7 8 8 7 7 6 6 7 9 7 8 9 9 8 8 7 7 8 7 7 8 8 9 10 10 10 9 10 10 9 9 9 10 11 10 9
4 6 8 8 6 7 8 8 7 8 9 8 8 8 9 10 11 11 10 9 8 9 8 8 9 11 9 8 8 9 9 9 8 10 13 10 11 10 11 12 12 13 11
5 3 5 5 5 6 6 6 8 8 9 8 8 8 8 9 10 11 10 10 10 10 11 11 10 13 15 15 15 16 15 14 14 12 10 13 14 15 12 11 11 11 11
12 11 9 2 1 3 4 6 7 5 5 7 7 7 8 9 10 10 10 11 11 11 13 11 14 20 20 18 21 20 14 15 15 15 13 12 12 12 11 13 14 11 11
Wind_Direction
125 123 125 134 138 130 136 149 149 143 150 155 170 179 186 189 208 208 203 209 189 191 205 195 195 179 181 163 151 125 131 111 127 115 83 102 87 95 94 89 100 113 118
132 127 138 140 132 142 143 156 153 155 146 146 163 158 175 168 205 217 208 187 179 190 201 160 170 181 183 149 126 118 123 103 139 136 118 95 88 95 99 100 104 111 114
126 134 138 140 150 156 153 148 146 144 142 153 141 154 158 164 166 185 203 206 194 203 185 177 191 179 155 137 133 118 112 109 124 126 121 102 104 112 106 104 108 101 100
138 146 146 164 168 164 154 149 146 153 157 153 149 148 144 142 88 110 179 135 162 184 161 155 151 151 153 141 140 132 129 118 125 119 117 120 121 116 113 116 104 84 92
148 152 167 161 155 150 148 146 146 165 152 130 127 117 104 89 50 11 40 179 148 128 98 96 116 121 115 129 140 137 134 130 131 131 130 133 123 131 128 114 108 107 69
154 157 138 145 145 151 151 139 165 146 122 115 120 124 106 72 17 28 33 138 119 123 113 85 107 110 108 114 116 115 138 140 143 141 137 137 136 125 127 127 123 124 108
144 149 145 147 144 158 140 139 149 140 121 123 132 124 110 72 1 350 135 116 115 113 112 118 122 125 125 127 109 111 105 104 134 144 139 143 134 141 134 132 133 113 100
145 150 147 147 141 145 141 137 124 128 129 134 139 125 110 64 4 9 108 107 99 97 96 108 119 127 130 132 127 120 112 122 129 135 135 137 134 136 132 130 119 102 86
155 158 158 151 143 144 146 145 132 125 118 127 135 137 121 58 17 105 100 91 88 77 74 101 108 114 126 120 113 106 96 86 78 94 106 108 107 107 123 122 127 129 115
169 162 157 146 147 152 147 145 131 126 126 125 129 135 105 79 35 114 109 114 94 84 65 81 106 122 122 120 119 112 108 112 112 109 104 97 104 116 112 131 147 145 127
143 140 141 148 147 145 135 134 135 129 120 122 124 117 106 68 72 134 132 120 123 107 94 87 95 121 117 105 114 117 119 118 113 116 115 119 124 134 121 110 126 149 133
140 140 138 139 142 137 137 125 130 130 125 126 120 107 103 99 60 161 143 129 125 120 110 96 100 108 105 101 100 117 121 118 117 121 125 131 139 144 155 149 145 172 134
136 141 139 137 132 139 136 135 126 132 142 142 139 149 155 125 93 124 145 126 108 97 101 101 117 112 106 104 126 131 128 130 132 134 142 143 155 146 128 119 134 142 74
140 141 140 141 134 132 121 140 144 149 147 159 165 175 156 127 99 116 114 96 88 87 96 107 121 110 103 121 130 127 126 132 140 143 142 121 120 142 141 143 150 161 156
148 150 149 138 140 141 122 145 162 179 166 167 178 179 178 177 182 174 145 133 121 111 111 113 121 125 130 142 145 130 126 126 129 128 145 145 141 147 159 145 132 122 144
146 152 157 149 141 145 145 119 34 54 167 168 158 151 164 151 139 156 133 116 124 129 98 123 116 129 145 151 150 150 104 118 136 139 141 151 165 172 159 145 156 174 184
157 159 152 148 150 155 158 166 174 40 70 195 180 169 164 167 155 151 144 139 148 131 120 134 137 145 142 142 159 154 162 145 134 146 161 173 172 161 160 198 189 189 231
163 159 162 164 160 156 175 187 162 174 186 168 57 133 174 152 144 138 134 114 136 32 141 162 169 164 164 175 173 164 162 167 174 174 179 184 184 184 183 205 199 207 220
159 167 169 168 168 169 170 174 178 167 198 132 112 70 82 99 101 115 166 155 177 190 170 170 173 180 185 186 191 190 184 187 186 180 181 182 186 183 203 204 206 208 204
170 172 168 169 152 154 161 168 167 174 165 166 165 146 129 119 159 165 194 181 176 189 181 182 179 180 187 192 194 193 190 183 188 192 195 194 195 200 216 216 218 223 220
163 159 171 167 166 179 176 181 182 166 173 176 197 171 174 171 179 184 192 207 202 201 197 190 179 180 184 191 194 196 202 204 205 210 213 213 206 215 223 224 223 222 228
160 163 173 183 178 178 185 182 180 179 184 186 190 161 168 206 183 193 198 204 208 203 197 192 196 196 195 193 188 185 192 200 197 197 206 212 210 216 218 221 223 221 221
164 167 182 186 184 178 177 186 185 186 188 194 178 160 177 202 197 199 204 207 205 206 200 197 201 201 197 197 198 200 204 213 215 207 212 217 218 221 220 223 222 223 215
181 183 183 192 175 178 184 192 193 195 195 195 189 184 186 198 207 208 209 207 207 211 207 206 211 212 208 206 207 211 216 216 209 210 207 216 222 220 221 223 227 228 228
7 190 170 180 179 180 175 195 207 199 201 199 197 198 197 198 205 216 213 209 209 208 213 212 213 218 215 210 210 211 213 207 211 209 212 219 222 220 222 227 228 227 222
26 31 39 27 287 204 188 200 204 204 210 217 211 205 203 203 211 213 214 212 214 216 218 217 221 220 221 223 225 222 210 208 209 208 211 217 222 226 225 227 226 224 222